Weather History for Meadville, PA

Change the Weather History Date:

Wednesday, June 18, 2014

  Actual Average Record
Temperature  
Mean Temperature 73 °F -  
Max Temperature 82 °F 76 °F 91 °F (1957)
Min Temperature 64 °F 53 °F 36 °F (1950)
Cooling Degree Days 8    
Growing Degree Days 23 (Base 50)    
Moisture  
Dew Point 64 °F    
Average Humidity 84    
Maximum Humidity 97    
Minimum Humidity 51    
Precipitation  
Precipitation 0.78 in - - ()
Sea Level Pressure  
Sea Level Pressure 30.04 in    
Wind  
Wind Speed 4 mph (West)    
Max Wind Speed 16 mph    
Max Gust Speed 34 mph    
Visibility 8 miles    
Events Rain    
Averages and records for this station are not official NWS values.
T = Trace of Precipitation, MM = Missing Value Source: NWS Daily Summary

Daily Weather History Graph

Daily Weather History Graph

Search for Another Location

Airport:

Trip Planner

Search our weather history database for the weather conditions in past years. The results will help you decide how hot, cold, wet, or windy it might be!

Date:

Astronomy

Jun. 18, 2014 Rise Set
Actual Time 5:46 AM EDT 8:57 PM EDT
Civil Twilight 5:12 AM EDT 9:32 PM EDT
Nautical Twilight 4:28 AM EDT 10:15 PM EDT
Astronomical Twilight 3:35 AM EDT 11:08 PM EDT
Moon 12:21 AM EDT 12:12 PM EDT
Length of Visible Light 16h 20m
Length of Day
15h 11m
Waning Gibbous, 63% of the Moon is Illuminated
Jun 18
Waning Gibbous
Jun 19
Last Quarter
Jun 27
New
Jul 5
First Quarter
Jul 12
Full

Hourly Weather History & Observations

Time (EDT) Temp. Heat Index Dew Point Humidity Pressure Visibility Wind Dir Wind Speed Gust Speed Precip Events Conditions
12:53 AM 72.0 °F - 69.1 °F 91% 29.96 in 10.0 mi WSW 5.8 mph - N/A   Mostly Cloudy
1:53 AM 72.0 °F - 69.1 °F 91% 29.97 in 9.0 mi WSW 4.6 mph - N/A   Mostly Cloudy
2:53 AM 70.0 °F - 66.0 °F 87% 29.98 in 10.0 mi Calm Calm - N/A   Partly Cloudy
3:53 AM 69.1 °F - 63.0 °F 81% 30.00 in 10.0 mi WNW 4.6 mph - N/A   Scattered Clouds
4:53 AM 68.0 °F - 63.0 °F 84% 30.01 in 10.0 mi Calm Calm - 0.00 in   Overcast
5:53 AM 68.0 °F - 63.0 °F 84% 30.00 in 10.0 mi Calm Calm - N/A   Mostly Cloudy
6:53 AM 68.0 °F - 63.0 °F 84% 30.01 in 10.0 mi Calm Calm - N/A   Mostly Cloudy
7:53 AM 66.9 °F - 64.0 °F 90% 30.04 in 1.5 mi Variable 3.5 mph - 0.08 in Rain Rain
8:04 AM 66.9 °F - 64.0 °F 90% 30.05 in 4.0 mi Calm Calm - 0.02 in Rain Light Rain
8:15 AM 66.0 °F - 64.0 °F 93% 30.06 in 1.8 mi SSW 5.8 mph - 0.08 in Rain Rain
8:28 AM 66.0 °F - 64.0 °F 93% 30.11 in 2.0 mi West 10.4 mph - 0.16 in Rain Heavy Rain
8:53 AM 66.0 °F - 64.0 °F 93% 30.07 in 3.0 mi NW 4.6 mph - 0.27 in Rain Light Rain
9:00 AM 66.0 °F - 63.0 °F 90% 30.09 in 8.0 mi North 5.8 mph - 0.00 in Rain Light Rain
9:53 AM 64.9 °F - 63.0 °F 93% 30.09 in 9.0 mi Calm Calm - 0.03 in Rain Light Rain
10:03 AM 64.9 °F - 63.0 °F 93% 30.11 in 8.0 mi Calm Calm - 0.00 in   Overcast
10:18 AM 64.9 °F - 64.0 °F 97% 30.12 in 6.0 mi SSW 4.6 mph - 0.00 in   Overcast
10:32 AM 66.0 °F - 64.0 °F 93% 30.11 in 5.0 mi Variable 3.5 mph - 0.00 in   Overcast
10:53 AM 66.9 °F - 64.0 °F 90% 30.09 in 10.0 mi Variable 3.5 mph - 0.00 in   Scattered Clouds
11:53 AM 73.0 °F - 64.0 °F 73% 30.06 in 10.0 mi SSW 6.9 mph - N/A   Clear
12:53 PM 78.1 °F - 64.9 °F 64% 30.05 in 10.0 mi SW 4.6 mph - N/A   Clear
1:53 PM 79.0 °F - 62.1 °F 56% 30.04 in 10.0 mi SW 6.9 mph - N/A   Clear
2:53 PM 82.0 °F 83.0 °F 62.1 °F 51% 30.03 in 10.0 mi Variable 4.6 mph - N/A   Clear
3:53 PM 82.9 °F 85.0 °F 66.0 °F 56% 30.01 in 10.0 mi Variable 4.6 mph - N/A   Scattered Clouds
4:53 PM 82.9 °F 85.0 °F 66.0 °F 56% 29.99 in 10.0 mi Calm Calm - N/A   Clear
5:53 PM 79.0 °F - 68.0 °F 69% 29.98 in 10.0 mi South 4.6 mph - 0.00 in Rain Light Rain
6:35 PM 71.1 °F - 64.9 °F 81% 30.03 in 1.2 mi NW 5.8 mph - 0.02 in Rain Light Rain
6:53 PM 70.0 °F - 66.0 °F 87% 30.01 in 5.0 mi NNE 3.5 mph - 0.08 in Rain Light Rain
7:53 PM 69.1 °F - 66.0 °F 90% 30.01 in 6.0 mi Calm Calm - 0.04 in Rain Light Rain
8:26 PM 66.0 °F - 63.0 °F 90% 30.10 in 1.8 mi NW 16.1 mph 34.5 mph 0.12 in Rain Heavy Rain
8:31 PM 66.0 °F - 63.0 °F 90% 30.10 in 2.5 mi WNW 13.8 mph 28.8 mph 0.13 in Rain Rain
8:38 PM 64.9 °F - 63.0 °F 93% 30.10 in 9.0 mi WNW 11.5 mph 20.7 mph 0.14 in Rain Light Rain
8:53 PM 64.9 °F - 62.1 °F 90% 30.06 in 7.0 mi North 8.1 mph - 0.15 in Rain Light Rain
9:53 PM 64.9 °F - 62.1 °F 90% 29.99 in 10.0 mi ENE 11.5 mph - 0.12 in Rain Light Rain
10:53 PM 64.0 °F - 62.1 °F 93% 30.01 in 10.0 mi South 6.9 mph - 0.01 in   Clear
11:15 PM 64.9 °F - 62.1 °F 90% 30.04 in 10.0 mi Calm Calm - N/A   Scattered Clouds
11:26 PM 64.9 °F - 62.1 °F 90% 30.05 in 10.0 mi Calm Calm - N/A   Mostly Cloudy
11:39 PM 64.9 °F - 62.1 °F 90% 30.05 in 10.0 mi ENE 3.5 mph - N/A   Mostly Cloudy
11:53 PM 64.9 °F - 63.0 °F 93% 30.04 in 10.0 mi Calm Calm - N/A   Mostly Cloudy